Temperature
17 17 17 17 18 18 18 18 18 17 17 18 17 17 17 17 17 17 17 17 17 17 17 16 16 16 16 16 16 16 15 15 15 15 15 15 15 15
17 17 17 17 17 17 17 18 18 17 17 18 17 17 17 17 17 17 17 17 16 16 16 16 16 16 16 16 16 16 16 15 15 15 15 15 15 15
17 17 17 17 17 17 17 17 17 17 17 17 17 17 17 17 17 17 17 17 16 16 16 16 16 16 16 16 16 16 15 15 15 15 15 15 15 15
17 17 17 17 17 17 17 17 17 17 17 17 17 17 17 17 17 17 17 16 17 17 16 16 16 16 16 16 16 16 15 15 15 15 15 15 15 15
16 16 16 16 16 16 16 16 16 17 17 17 17 17 17 17 17 17 16 16 16 16 16 16 16 16 16 16 16 16 15 15 15 15 15 14 14 14
16 16 16 16 16 16 16 16 16 16 16 16 16 17 17 16 16 16 16 16 16 16 16 16 16 16 16 16 16 16 15 15 15 15 15 14 14 14
16 16 16 16 16 16 16 16 16 16 16 16 16 16 16 16 16 16 16 16 16 16 16 16 16 16 16 16 15 15 15 15 15 15 15 14 14 14
16 16 16 16 16 16 16 16 16 16 16 16 16 16 16 16 16 16 15 15 15 15 15 15 15 15 16 16 16 15 15 15 15 15 15 14 14 14
15 15 15 16 16 16 16 16 15 15 15 15 16 16 16 16 16 15 15 15 15 16 15 15 15 15 15 15 15 15 15 15 15 15 14 14 14 14
15 15 15 16 16 15 15 15 15 15 15 15 15 15 15 16 16 15 15 15 15 15 15 15 15 15 15 15 15 15 15 15 15 14 14 14 14 14
15 15 15 15 16 15 15 15 15 15 15 15 15 15 15 15 15 15 15 15 15 15 15 15 15 15 15 15 15 15 15 15 14 14 14 14 14 13
15 15 15 15 15 15 15 15 15 15 15 15 15 15 15 15 15 15 15 15 14 14 15 15 15 14 14 14 14 14 14 14 14 14 14 14 13 13
14 14 15 15 15 15 15 15 15 15 15 14 14 15 15 15 15 15 15 15 14 14 15 14 14 14 14 14 14 14 14 14 14 14 13 13 13 13
14 14 14 14 14 15 15 15 15 14 14 14 14 14 14 15 15 15 15 15 15 15 15 14 14 14 14 13 13 13 13 13 13 13 13 13 13 12
14 14 14 14 14 14 14 14 14 14 14 14 14 14 14 14 14 14 14 14 14 14 14 14 14 14 14 13 13 13 13 13 13 12 12 12 12 12
13 13 13 13 14 14 14 14 14 14 14 13 13 14 14 14 14 14 14 14 14 14 14 14 14 14 13 13 13 13 13 12 12 12 12 12 11 11
13 13 13 13 13 13 13 13 13 13 13 13 13 13 13 13 14 14 14 14 14 14 14 14 14 13 13 13 13 12 12 12 12 12 11 11 11 11
13 13 13 13 13 13 13 13 13 13 13 13 13 13 13 13 13 13 13 13 13 13 13 13 13 13 13 12 13 12 12 12 12 11 11 11 11 11
13 13 13 13 13 13 12 12 13 13 13 12 12 12 12 12 13 13 13 13 13 13 13 13 13 12 12 12 12 12 12 11 11 11 11 11 11 11
12 12 12 12 12 12 12 12 12 12 12 12 12 12 12 12 12 12 12 12 12 12 12 12 12 12 12 12 11 11 11 11 11 11 11 10 10 10
12 12 12 11 11 11 11 11 11 11 11 11 11 11 11 11 11 11 11 11 11 11 11 11 12 12 11 11 11 11 11 11 11 10 10 10 10 10
11 11 11 11 11 11 11 11 11 11 11 11 11 11 11 11 11 11 11 11 11 11 11 11 11 11 11 11 11 11 11 10 10 10 10 10 10 9
11 11 11 11 11 10 10 10 10 10 10 10 10 10 10 10 10 10 10 10 10 10 10 10 10 10 10 10 10 10 10 10 10 10 10 10 10 10
Wind_Speed
3 3 3 3 2 2 1 1 1 2 2 2 2 2 3 5 10 9 9 14 16 15 14 13 12 12 12 11 11 11 10 10 10 10 10 10 9 9
2 1 2 3 2 2 2 2 2 2 2 1 2 3 3 5 9 8 8 13 16 16 15 14 13 13 12 12 12 12 11 11 10 10 10 10 9 9
2 2 3 2 2 2 2 1 1 1 2 2 2 1 3 3 4 6 7 10 11 16 16 16 15 15 14 13 13 13 12 12 11 10 10 10 10 9
3 3 2 2 2 3 2 2 1 1 2 3 2 1 2 3 5 5 6 8 9 14 17 17 17 16 16 15 15 15 14 13 12 11 11 10 10 10
3 3 3 3 2 3 3 2 2 2 2 2 2 2 2 2 3 4 4 3 6 10 15 17 17 17 17 17 17 16 16 15 13 13 12 11 11 11
3 3 3 3 3 4 3 3 2 2 2 2 2 2 2 2 2 3 3 3 4 4 7 10 14 17 17 17 17 17 16 16 15 14 13 13 12 12
4 3 3 4 4 4 4 2 3 3 3 3 3 3 2 2 2 3 4 3 4 3 3 4 6 8 11 14 16 17 17 17 17 16 15 15 14 13
4 4 4 4 4 6 6 5 4 4 4 4 4 4 4 3 3 3 3 3 3 3 3 4 5 6 7 10 15 18 19 18 18 18 17 17 16 15
5 5 6 5 3 4 5 7 7 7 7 5 5 5 5 4 4 5 4 4 5 4 3 5 4 5 5 8 15 18 19 19 18 18 17 16 16 16
6 6 5 5 5 4 5 5 5 6 8 7 7 8 7 4 5 6 6 6 5 4 4 4 4 4 4 4 12 16 18 18 18 17 17 16 16 16
6 5 6 4 5 4 5 5 6 6 8 9 10 10 10 9 6 4 5 4 5 4 4 4 4 3 4 4 6 12 15 16 17 17 16 16 16 14
5 5 5 4 4 4 5 6 7 7 6 7 7 9 9 9 10 8 7 5 5 4 4 4 4 3 3 3 3 6 9 11 14 15 15 15 14 10
5 5 4 4 5 7 7 7 9 7 6 6 6 6 7 6 7 8 7 7 6 6 3 3 3 3 3 2 2 3 5 4 6 8 12 14 14 12
5 4 3 2 4 6 6 8 8 6 5 5 6 5 5 6 6 7 8 9 8 8 5 3 3 4 3 4 3 2 3 4 4 4 6 10 12 14
5 6 6 6 6 6 8 9 6 5 5 6 6 6 5 5 4 5 6 7 7 7 7 6 5 5 4 4 3 3 2 3 4 4 5 5 6 6
6 7 8 8 7 8 6 4 4 5 5 6 6 5 4 4 4 4 5 4 4 5 5 7 6 6 6 5 4 4 3 3 4 4 4 4 5 7
5 5 5 4 4 4 4 4 5 5 5 6 6 5 5 5 5 4 3 3 4 4 3 3 4 5 5 4 4 4 4 3 3 4 4 5 5 5
3 5 5 5 4 4 4 4 4 4 4 5 5 4 5 5 5 4 3 3 4 4 3 3 2 2 2 2 3 4 4 3 3 3 4 4 4 4
2 4 4 4 4 4 4 4 4 4 3 3 4 4 4 4 3 3 3 3 3 3 3 2 3 3 3 4 2 3 4 3 3 3 3 3 4 4
3 4 4 3 3 4 4 5 4 4 4 4 4 4 4 3 3 3 3 3 3 3 3 2 2 3 4 3 2 2 5 4 3 3 2 2 2 3
4 4 4 3 3 4 4 4 4 3 4 4 3 4 3 2 3 3 3 3 3 3 3 2 2 2 2 1 1 2 1 4 5 4 3 2 3 3
4 4 3 3 3 4 4 4 5 4 4 3 3 3 3 2 3 4 3 2 2 3 3 3 2 2 1 2 3 2 1 1 2 3 4 4 3 4
4 4 4 3 3 3 4 5 6 5 4 4 4 4 4 4 3 3 3 2 2 3 3 2 2 1 2 1 2 2 2 2 1 1 2 3 3 4
Wind_Direction
260 250 255 260 260 277 276 240 245 261 243 205 198 192 181 151 167 186 183 189 191 195 199 202 204 209 213 217 216 216 213 213 216 218 221 224 225 227
264 265 274 279 270 266 253 243 243 253 272 231 221 197 201 190 186 197 193 193 197 199 202 206 209 212 214 216 215 210 210 212 214 216 220 221 222 225
293 262 256 279 291 290 287 262 252 243 256 275 250 224 202 199 185 212 200 191 198 202 206 208 211 215 215 214 211 209 210 212 215 218 223 225 225 227
277 270 260 256 266 284 288 280 277 255 238 264 265 251 232 211 186 212 213 204 200 205 207 210 213 215 215 211 209 208 209 210 214 218 223 227 228 227
269 261 254 244 246 260 264 270 263 260 229 241 263 253 237 223 206 223 229 225 219 207 206 212 215 216 215 212 210 209 210 212 215 218 221 224 226 226
274 262 254 241 245 252 248 249 255 260 247 239 251 256 237 236 214 219 237 231 238 222 210 213 216 217 215 213 211 211 214 215 216 218 220 223 224 225
284 269 253 236 236 244 251 252 257 258 254 247 247 251 239 220 222 229 237 240 230 218 214 215 206 208 212 218 218 216 216 217 217 218 219 222 224 225
281 278 263 235 228 231 243 256 252 248 251 248 248 246 246 234 227 235 241 250 246 215 212 232 213 209 206 209 214 215 216 217 217 217 218 219 221 223
274 271 273 269 245 243 243 247 250 247 245 250 257 255 248 236 231 237 240 241 249 232 221 239 220 222 217 216 204 207 211 215 217 218 219 219 219 220
271 266 264 263 263 261 264 257 253 254 248 244 251 258 257 253 238 234 238 246 250 236 220 240 231 232 236 213 211 209 209 213 216 216 216 218 220 221
274 273 271 259 258 251 260 266 265 262 254 248 247 252 254 253 248 245 244 244 254 242 217 233 242 247 238 226 217 214 212 213 216 216 215 216 219 221
272 264 256 250 244 241 251 263 266 267 274 268 256 255 251 247 238 229 235 243 254 257 224 219 239 238 250 231 205 201 205 214 216 220 221 219 214 212
283 274 266 256 252 248 246 254 257 266 270 264 261 254 245 238 227 224 226 228 238 248 241 218 243 241 232 243 225 203 189 194 206 219 223 218 211 205
290 291 283 257 269 266 259 262 268 276 275 274 267 262 253 245 236 228 225 226 228 237 244 233 242 240 245 260 252 216 198 191 191 201 201 207 211 215
290 295 291 272 270 269 259 260 262 260 260 264 267 267 266 258 244 238 237 230 232 235 235 234 238 240 239 247 244 233 226 214 198 198 196 195 200 202
291 290 277 259 258 269 277 261 247 250 254 261 267 271 276 275 264 250 243 237 241 246 234 226 229 229 241 239 232 237 223 211 208 208 206 208 203 200
300 292 289 283 269 263 265 263 251 243 249 261 266 272 275 274 271 269 260 245 240 245 261 249 233 223 222 225 231 234 228 220 210 209 214 220 216 204
296 288 292 294 293 291 292 288 276 270 264 257 262 270 277 275 272 273 264 255 255 248 245 242 233 235 242 252 217 221 225 227 224 212 213 225 226 208
267 283 294 303 314 317 313 308 309 309 308 304 293 284 282 282 284 284 284 279 276 269 255 244 229 214 230 255 256 206 209 218 215 213 215 222 227 215
293 296 303 315 319 315 315 315 314 318 316 308 300 295 294 292 291 284 277 278 288 292 286 262 234 218 223 234 239 240 212 207 213 221 225 235 237 218
321 319 316 317 323 320 317 316 312 311 312 308 307 300 295 299 299 294 287 292 287 282 280 273 273 249 232 186 211 243 241 219 214 216 209 218 245 246
318 313 317 324 329 329 328 322 318 318 321 322 321 319 310 300 296 292 284 279 284 290 289 286 287 263 252 225 237 237 252 272 257 243 237 224 221 228
323 323 326 333 337 339 338 335 331 335 341 339 336 334 331 317 303 300 307 302 291 294 301 297 298 300 287 259 261 253 236 227 222 242 282 285 248 238
Height
1511 1511 1511 1512 1513 1513 1513 1513 1514 1513 1514 1514 1514 1515 1515 1516 1516 1517 1517 1518 1518 1518 1519 1519 1519 1520 1521 1521 1522 1523 1524 1525 1525 1526 1527 1527 1528 1529
1509 1509 1509 1510 1510 1511 1511 1511 1512 1512 1512 1512 1512 1513 1514 1514 1514 1514 1515 1515 1515 1516 1516 1517 1517 1517 1518 1518 1519 1520 1521 1521 1522 1522 1523 1524 1525 1525
1508 1508 1508 1508 1508 1508 1509 1509 1509 1510 1509 1510 1510 1511 1511 1511 1511 1512 1512 1512 1512 1513 1514 1514 1514 1515 1515 1515 1516 1517 1517 1518 1518 1519 1519 1520 1521 1522
1506 1505 1505 1505 1505 1505 1506 1506 1506 1507 1507 1507 1507 1508 1508 1508 1508 1509 1509 1509 1509 1510 1510 1511 1511 1511 1512 1512 1513 1513 1514 1514 1515 1515 1516 1516 1517 1518
1503 1503 1503 1503 1502 1502 1503 1503 1504 1504 1505 1504 1504 1505 1505 1505 1505 1506 1506 1506 1506 1506 1507 1507 1508 1508 1508 1508 1509 1510 1510 1511 1511 1511 1512 1513 1513 1514
1501 1501 1500 1500 1500 1500 1500 1500 1501 1501 1502 1501 1501 1502 1502 1502 1502 1502 1502 1503 1503 1503 1503 1503 1504 1504 1504 1504 1505 1505 1506 1507 1507 1508 1508 1509 1509 1510
1499 1498 1498 1498 1498 1498 1498 1497 1498 1498 1498 1498 1498 1499 1499 1499 1498 1498 1499 1499 1499 1500 1499 1499 1499 1499 1499 1500 1500 1501 1501 1502 1503 1503 1504 1504 1505 1506
1495 1495 1495 1495 1494 1494 1494 1494 1495 1495 1495 1495 1495 1495 1495 1495 1495 1495 1495 1495 1495 1496 1495 1495 1495 1495 1495 1495 1496 1497 1497 1498 1498 1499 1499 1500 1501 1501
1492 1492 1492 1492 1491 1491 1491 1491 1490 1490 1491 1491 1491 1491 1491 1492 1491 1491 1491 1491 1491 1491 1492 1490 1491 1490 1491 1491 1492 1492 1493 1493 1493 1494 1495 1495 1496 1497
1489 1489 1488 1487 1487 1487 1486 1486 1486 1485 1486 1486 1486 1487 1488 1488 1487 1487 1487 1487 1487 1487 1488 1487 1486 1486 1486 1487 1487 1487 1488 1488 1489 1489 1490 1491 1492 1492
1486 1485 1484 1484 1483 1483 1482 1481 1481 1481 1481 1481 1482 1482 1482 1482 1483 1483 1483 1483 1482 1482 1482 1482 1482 1482 1482 1481 1482 1483 1483 1483 1484 1484 1485 1486 1487 1488
1482 1481 1481 1480 1479 1479 1478 1477 1476 1476 1476 1476 1476 1476 1476 1476 1477 1478 1478 1478 1477 1477 1477 1478 1477 1477 1477 1476 1477 1477 1477 1478 1479 1480 1480 1481 1482 1482
1478 1477 1477 1476 1475 1474 1474 1473 1472 1472 1472 1472 1471 1471 1471 1471 1471 1472 1472 1473 1473 1472 1473 1473 1473 1473 1473 1472 1472 1472 1472 1473 1473 1474 1475 1476 1477 1477
1475 1473 1473 1472 1471 1470 1469 1469 1468 1468 1467 1467 1467 1466 1466 1466 1466 1466 1467 1467 1467 1468 1468 1469 1468 1468 1468 1467 1467 1467 1468 1468 1468 1468 1469 1470 1471 1472
1471 1470 1469 1468 1467 1466 1465 1465 1464 1463 1462 1462 1461 1461 1462 1462 1462 1462 1462 1462 1462 1462 1462 1462 1462 1462 1463 1462 1461 1462 1462 1463 1463 1463 1464 1464 1465 1466
1467 1466 1465 1464 1463 1462 1461 1460 1459 1459 1458 1457 1457 1457 1457 1457 1456 1456 1456 1457 1457 1456 1457 1457 1457 1457 1457 1457 1457 1456 1457 1457 1458 1458 1459 1459 1460 1461
1464 1463 1462 1461 1460 1458 1457 1456 1455 1455 1454 1453 1453 1452 1452 1452 1452 1452 1452 1452 1452 1451 1451 1451 1451 1452 1451 1452 1451 1451 1452 1452 1453 1453 1454 1454 1455 1456
1461 1459 1458 1458 1457 1455 1454 1453 1452 1451 1450 1450 1449 1448 1448 1448 1447 1447 1447 1447 1447 1446 1446 1446 1446 1446 1446 1446 1447 1446 1447 1447 1448 1449 1449 1450 1450 1451
1458 1457 1456 1455 1454 1453 1452 1451 1449 1448 1447 1446 1445 1444 1444 1444 1443 1442 1442 1442 1442 1442 1441 1441 1441 1441 1440 1440 1441 1443 1442 1443 1443 1444 1444 1445 1445 1446
1456 1455 1454 1453 1452 1450 1449 1448 1446 1445 1444 1443 1442 1441 1440 1440 1439 1439 1438 1437 1437 1437 1437 1437 1437 1436 1436 1436 1437 1438 1439 1439 1439 1439 1440 1440 1441 1442
1454 1453 1452 1451 1449 1448 1447 1445 1444 1442 1440 1439 1438 1437 1436 1436 1435 1435 1434 1434 1433 1433 1433 1432 1433 1434 1434 1434 1434 1434 1435 1436 1436 1436 1436 1436 1436 1436
1452 1451 1450 1448 1447 1445 1444 1443 1441 1439 1438 1437 1435 1434 1433 1432 1431 1431 1431 1430 1430 1430 1430 1430 1430 1431 1431 1431 1430 1431 1431 1432 1433 1433 1433 1433 1433 1432
1450 1449 1447 1446 1444 1443 1441 1440 1438 1437 1435 1434 1433 1431 1430 1430 1429 1428 1428 1427 1427 1427 1427 1427 1427 1427 1428 1428 1428 1428 1428 1428 1428 1429 1429 1429 1430 1430